Theta_e
337 337 337 344 345 346 348 348 349 349 348 348 348 348 346 345 344 345 344 344 344 344 342 341 342 342 339 340 345 347 347 345 342 340 339 338 338 339 340 341 343 342 343 342 342 343 343 343 343 342 340 339 340 341 342 342 343 343 342 343 343 343 343 343 342 342 344 344 345 346 347 346 347 346 344 347 345 344 342 342 341 339 338 341 344
335 337 337 339 347 348 348 349 349 349 349 348 348 346 346 345 345 344 343 343 342 343 343 342 342 342 342 343 347 347 347 344 342 341 340 339 338 340 340 341 340 342 342 342 342 343 342 342 342 341 341 340 340 340 340 341 341 341 341 341 341 341 341 341 341 341 341 341 343 343 343 345 345 345 345 344 345 343 342 342 341 337 337 342 343
337 338 338 340 348 349 349 348 349 349 349 349 347 345 346 345 344 344 343 343 343 342 342 341 338 338 338 344 346 346 346 346 343 340 339 339 339 340 341 342 341 341 342 341 341 341 342 342 341 341 341 340 339 339 339 339 339 339 341 341 340 340 340 340 340 340 340 339 339 339 341 342 342 343 344 343 343 342 341 341 341 340 337 342 341
339 341 341 342 346 347 349 348 349 348 348 348 347 345 345 345 344 344 343 343 342 342 341 340 340 340 343 347 347 347 345 343 341 340 340 339 339 340 340 340 341 341 341 343 344 344 343 343 341 340 339 339 338 338 337 338 337 338 340 340 341 341 340 339 339 339 339 338 337 334 333 331 336 341 342 343 343 343 341 341 341 341 341 341 341
342 343 342 340 343 346 348 349 349 348 348 348 348 346 345 345 345 344 343 342 342 341 342 341 340 341 346 346 346 346 345 343 340 339 338 337 337 338 339 339 339 340 341 344 343 342 342 342 341 340 339 339 338 338 337 338 339 339 339 341 341 341 340 340 339 339 338 337 335 332 326 329 333 340 342 343 343 341 341 341 341 342 340 340 342
342 343 342 339 340 345 346 348 348 349 349 348 346 346 346 345 344 344 343 342 342 341 340 341 340 341 343 346 347 346 346 344 341 339 337 337 338 339 339 339 339 340 341 342 343 342 341 341 339 338 338 337 337 337 337 337 337 338 340 340 341 340 340 340 339 337 336 335 334 330 330 330 330 336 342 342 342 340 340 341 341 341 341 341 341
343 343 342 340 342 344 345 348 349 349 348 348 347 347 346 345 344 344 343 342 342 342 342 341 340 339 346 347 346 346 345 344 341 340 338 336 338 339 339 340 340 340 339 340 341 342 342 341 342 343 343 341 340 340 340 339 339 339 339 340 341 340 340 339 338 337 335 332 329 330 332 333 334 335 341 342 342 341 340 342 341 340 341 341 340
343 343 342 341 342 343 344 347 348 348 348 347 347 346 345 345 344 344 343 342 342 342 340 339 339 339 346 346 345 345 344 344 341 339 338 337 336 338 339 338 339 340 340 340 340 342 342 341 341 341 341 340 339 339 338 339 340 340 340 340 340 340 339 338 337 336 335 330 330 330 331 332 333 334 341 340 341 340 339 341 340 342 341 339 336
342 343 342 340 340 342 344 346 348 348 348 347 347 346 345 345 344 343 343 342 342 342 341 339 338 341 345 345 345 345 345 343 340 338 338 336 336 336 336 337 338 338 339 339 340 340 341 341 340 339 339 339 339 339 339 340 340 339 340 340 339 338 338 337 336 334 332 330 330 330 330 331 332 333 338 342 342 341 339 337 338 340 339 335 335
341 343 342 339 337 341 344 345 349 348 348 347 346 346 346 345 344 343 343 342 341 342 342 341 340 341 343 344 343 344 343 342 338 338 337 336 336 336 336 337 338 339 339 342 343 343 343 342 341 341 340 341 339 340 340 340 340 340 340 339 338 338 337 335 334 333 329 329 330 331 333 335 333 334 338 341 340 340 336 334 335 334 334 335 334
341 342 342 340 339 341 346 347 348 348 348 347 347 346 346 345 343 343 343 343 342 341 341 341 340 338 341 343 343 343 343 343 339 336 337 336 336 336 336 336 337 337 338 339 342 342 342 342 341 341 341 341 339 339 339 339 339 339 339 338 338 337 336 334 331 327 328 328 328 330 333 335 331 333 339 340 339 338 334 334 334 335 336 336 336
340 342 342 341 343 340 345 345 347 348 347 347 347 346 345 345 344 343 342 342 342 341 341 340 339 338 340 341 342 343 343 343 339 336 336 335 335 336 336 337 337 337 337 338 338 340 340 340 340 339 339 339 339 338 339 338 338 338 337 337 337 335 334 332 328 327 327 328 329 329 329 330 331 336 339 339 337 336 336 335 335 335 336 336 335
340 341 342 342 342 340 342 346 345 348 347 347 347 347 345 345 344 343 343 342 342 341 341 340 340 339 338 342 343 343 343 342 340 337 335 334 335 336 337 337 337 337 338 337 338 339 339 339 339 338 338 338 337 337 337 337 337 337 336 335 335 334 332 330 326 326 326 327 327 328 329 330 331 336 335 338 336 337 336 336 335 335 335 334 334
339 340 342 342 341 343 339 341 343 346 347 347 347 347 346 345 344 343 343 342 342 341 341 341 339 339 337 338 340 341 341 341 341 338 335 334 335 336 335 336 336 336 336 336 336 336 337 337 338 338 337 337 336 336 336 336 336 335 335 334 333 331 328 327 328 325 326 326 328 327 327 329 330 334 336 338 338 335 335 334 334 334 333 333 333
338 340 342 343 342 341 340 338 341 342 345 346 346 347 346 345 344 343 342 342 341 341 341 341 339 338 337 336 339 338 340 340 338 337 335 334 334 334 334 335 336 336 336 336 336 336 337 338 338 338 337 336 336 335 336 335 335 334 333 332 330 328 326 322 323 323 324 326 326 327 328 329 335 336 336 336 336 335 334 333 332 331 331 330 330
340 341 342 342 342 341 341 340 337 337 341 343 344 344 345 345 344 343 342 342 341 341 340 340 339 338 337 336 336 338 339 338 337 336 335 334 334 335 334 334 334 334 334 335 336 336 337 337 337 336 336 335 336 335 335 334 334 333 332 330 328 327 324 323 322 322 323 325 326 327 327 329 333 335 335 336 334 333 332 331 331 331 330 329 329
341 341 342 342 342 341 341 340 336 334 335 336 339 340 342 344 344 343 342 342 342 341 340 340 339 338 338 338 337 339 339 337 336 335 335 334 334 334 334 333 333 333 334 335 336 336 336 336 336 335 335 335 335 335 334 333 332 331 330 329 327 326 323 322 322 322 323 324 324 325 326 327 331 334 334 333 332 333 332 330 330 329 328 328 327
340 341 341 342 341 341 341 340 336 336 337 335 333 337 340 342 342 341 341 341 341 341 340 340 339 339 339 338 337 338 337 337 336 335 334 334 335 335 335 333 333 334 334 335 336 336 335 335 334 334 334 334 333 333 332 331 331 329 328 327 326 325 323 322 321 322 323 324 323 324 325 330 332 332 332 331 330 330 330 329 328 327 326 325 325
339 341 341 341 340 340 340 339 339 338 337 336 334 336 334 338 339 339 339 340 340 339 339 338 337 338 337 335 334 332 332 333 335 335 335 333 333 332 335 334 333 333 335 334 334 334 334 333 333 333 333 332 332 331 330 330 328 327 326 324 322 320 320 321 320 321 321 322 323 324 325 329 328 329 329 329 329 328 328 327 326 326 325 325 324
338 339 340 340 340 339 338 338 338 338 337 336 333 334 332 332 335 336 336 337 337 337 335 333 331 330 330 330 327 326 325 325 326 328 330 333 331 328 332 332 332 332 333 333 333 333 332 332 332 332 332 331 330 329 328 327 326 325 323 322 319 318 318 319 319 320 322 323 324 325 329 329 330 330 328 328 328 327 326 324 323 323 323 323 323
336 338 338 339 340 339 338 337 337 337 337 337 336 335 333 329 331 330 332 334 334 333 332 326 323 322 323 322 323 323 322 323 322 322 322 324 323 325 330 332 331 331 332 332 332 332 332 331 330 330 328 326 323 323 324 324 324 322 320 318 316 316 316 318 319 320 321 323 325 326 329 328 329 329 327 327 326 324 324 323 324 323 323 323 321
333 334 337 338 338 338 338 337 337 337 336 337 338 338 335 332 333 332 330 330 328 326 326 326 326 322 320 322 322 322 321 320 321 325 322 323 323 323 327 331 331 332 332 331 331 331 330 329 329 327 324 321 316 311 313 316 318 318 317 315 314 313 315 317 318 320 321 322 324 326 328 330 328 329 328 326 325 326 326 323 322 322 322 322 321
332 333 335 337 338 338 338 337 337 336 336 336 337 338 337 335 333 333 330 326 327 326 325 324 322 322 321 321 320 320 319 318 319 321 321 321 323 323 326 328 330 329 330 330 330 329 329 328 325 323 320 315 309 308 308 308 309 312 312 311 311 311 313 315 316 319 321 323 325 326 327 327 328 329 328 327 326 325 323 323 322 321 321 320 320
333 333 334 336 338 337 337 337 337 337 335 335 336 337 337 337 336 335 333 327 325 325 323 322 322 321 321 321 320 318 318 319 322 322 321 321 322 322 322 323 326 325 326 326 327 326 324 322 320 317 313 309 307 307 307 307 307 308 308 309 309 310 311 312 314 318 322 324 325 327 328 329 328 326 325 324 324 323 322 321 321 321 320 319 319
334 334 334 334 336 337 337 337 337 337 336 335 335 336 337 337 336 336 334 327 324 323 323 322 321 321 320 320 319 318 317 318 318 319 319 319 319 319 316 313 313 313 314 310 309 309 308 307 307 307 306 307 306 306 307 307 306 306 306 307 308 309 309 310 312 318 322 324 324 325 326 327 328 327 325 324 323 322 321 321 320 320 319 318 318
334 332 333 334 335 337 337 337 337 337 336 335 335 336 336 337 336 336 334 329 325 322 322 321 321 320 320 319 318 317 317 317 317 317 318 318 318 316 312 309 308 308 308 306 305 305 305 305 305 305 304 305 304 304 304 306 305 305 305 305 307 308 308 307 308 310 311 318 322 323 325 325 325 325 324 323 322 322 321 321 320 319 319 318 317
333 333 334 334 335 336 336 337 336 337 337 337 336 335 335 337 337 336 334 331 327 323 321 320 320 320 319 318 318 316 316 316 317 317 317 317 316 314 310 307 305 304 305 305 304 304 304 304 304 303 303 303 303 303 303 303 304 304 304 305 305 306 306 305 304 304 307 312 319 321 323 324 323 322 324 323 323 322 320 319 319 319 318 318 317
333 333 334 335 334 335 336 336 336 337 336 337 336 335 336 336 337 334 334 332 328 325 321 321 320 320 319 319 318 317 317 316 316 317 316 315 315 312 308 304 303 302 303 304 303 302 303 303 303 303 303 303 303 303 303 302 302 303 304 304 304 305 304 303 303 304 306 310 317 320 321 322 323 323 324 323 323 321 320 320 320 319 319 318 317
331 333 334 335 335 335 336 335 336 336 337 337 336 335 336 336 336 334 334 329 331 328 324 320 319 319 319 318 317 316 315 316 316 316 315 315 313 311 307 304 302 301 302 302 303 302 302 303 303 302 302 302 302 301 301 300 301 302 303 303 303 303 302 302 302 303 304 304 310 319 321 322 323 322 322 323 323 322 321 320 319 319 319 317 316
332 333 334 335 335 335 335 335 335 335 336 337 336 335 335 335 336 334 335 329 333 331 326 322 320 319 319 318 318 317 316 316 315 314 316 315 313 309 306 303 301 301 301 301 302 302 302 302 302 302 301 300 300 300 300 299 299 299 300 300 301 300 300 300 300 300 301 302 304 311 318 320 322 323 322 321 322 321 321 320 319 319 318 317 316
331 331 333 334 335 335 335 335 336 334 336 336 336 335 335 335 335 335 335 333 334 332 328 325 322 320 319 318 317 317 316 315 315 314 315 315 313 309 305 303 301 300 301 301 301 302 301 301 301 300 300 299 299 298 299 298 297 297 298 299 299 298 297 297 298 298 299 299 301 303 311 318 320 321 322 321 320 320 319 319 319 318 317 317 316
329 331 332 333 334 335 335 336 336 336 335 335 335 335 334 335 335 336 335 334 334 333 330 327 322 322 320 318 317 316 316 315 314 314 314 314 312 310 305 303 300 300 300 301 301 301 300 299 299 299 299 298 297 297 297 297 296 296 296 296 297 296 296 296 296 296 296 298 299 301 303 305 313 318 319 319 319 319 318 318 318 316 318 317 316
329 330 331 331 333 334 335 336 337 336 335 336 336 336 335 335 335 335 335 334 334 334 331 328 325 323 322 319 317 316 316 315 314 314 313 315 315 312 307 305 302 300 300 301 301 301 300 300 299 299 297 296 296 296 297 296 295 294 294 294 294 294 294 295 295 295 296 295 295 297 298 298 298 305 313 318 319 317 317 318 316 316 316 316 315
326 328 329 330 332 333 333 335 336 336 335 337 336 336 336 335 335 335 334 335 334 334 332 331 327 325 324 322 320 318 316 316 315 314 315 316 316 314 310 307 304 302 302 302 301 301 301 300 299 299 299 298 297 296 296 294 293 293 293 294 293 293 294 294 294 294 295 294 294 293 294 294 294 296 297 309 315 318 316 316 316 316 315 314 314
319 320 325 329 330 331 332 332 332 334 334 335 334 335 336 335 335 335 335 334 334 334 334 333 329 327 326 323 321 319 318 318 317 316 315 315 315 314 311 308 305 302 301 302 302 301 301 300 300 298 298 297 296 295 295 294 294 293 293 293 292 293 293 292 292 293 293 293 293 292 293 293 293 293 294 294 300 309 317 315 314 314 314 313 313
318 319 320 323 327 329 330 330 330 331 333 333 335 335 334 335 334 329 334 335 334 334 333 333 332 329 327 325 322 320 319 319 318 317 315 314 313 314 312 309 305 302 302 301 301 301 301 300 300 299 297 295 295 294 294 293 292 291 291 292 292 292 291 291 291 291 291 292 292 292 292 292 293 294 294 291 294 301 312 315 314 313 313 313 313
317 317 317 317 321 325 326 328 329 330 331 332 332 333 334 333 334 333 333 333 333 333 334 332 332 330 328 327 324 321 319 319 319 318 316 314 312 312 312 308 305 302 301 301 301 302 300 300 299 299 299 296 295 294 293 294 293 293 292 291 291 291 291 290 290 290 292 290 290 290 290 290 292 292 290 290 291 293 303 310 312 314 314 312 311
315 316 317 318 319 320 323 325 328 329 330 330 330 331 332 331 331 332 330 332 333 334 334 334 333 332 330 328 327 324 320 320 319 318 317 315 312 310 309 308 306 303 301 300 300 300 301 300 299 298 297 296 295 294 293 292 292 291 291 291 291 291 291 290 290 291 290 290 289 288 288 288 288 288 288 289 289 290 291 298 304 305 307 313 312
314 315 316 317 317 318 319 320 322 326 328 329 329 329 330 329 330 329 328 329 330 330 331 332 333 333 331 330 328 326 322 322 320 318 317 315 313 310 309 308 306 303 301 300 299 299 300 300 299 296 296 296 296 295 292 291 291 290 290 290 290 289 289 289 288 288 287 288 290 289 288 286 287 287 287 287 287 287 288 287 288 290 295 307 312
310 312 313 315 316 317 317 319 320 323 325 327 327 326 326 326 326 324 327 329 330 327 328 330 331 331 331 331 330 329 326 323 322 320 318 316 314 311 308 308 307 303 300 299 298 298 298 298 297 295 293 293 292 291 292 291 290 290 289 289 289 289 289 288 288 287 287 286 286 287 287 287 286 286 285 285 285 284 285 285 287 286 288 296 304
308 310 312 314 316 317 316 318 320 321 323 324 324 324 323 323 324 325 325 326 327 329 328 328 328 329 329 329 329 330 328 325 323 322 320 316 316 312 310 309 308 304 301 300 299 299 299 299 296 295 294 292 290 291 291 291 290 289 289 290 290 291 290 290 289 287 286 285 285 286 286 286 285 285 283 284 284 283 284 284 285 286 286 285 288
305 308 310 313 315 316 316 318 318 320 322 324 324 324 325 325 324 325 325 325 323 323 325 327 328 327 327 328 328 328 328 327 324 325 321 319 316 312 309 307 307 305 302 301 300 298 298 297 296 294 295 293 291 291 291 294 292 292 289 288 291 291 291 288 287 287 286 285 285 285 285 285 285 284 283 284 284 282 284 285 285 286 285 285 285
303 307 309 310 311 314 316 316 317 319 320 321 323 323 324 324 324 323 325 320 318 323 323 322 322 324 326 328 328 328 329 327 326 324 324 321 319 315 311 309 308 306 304 302 299 298 297 297 296 295 294 294 293 291 291 298 294 290 289 289 288 288 289 288 287 286 287 287 287 286 285 284 284 283 283 284 284 283 283 284 285 285 285 285 283
301 302 306 309 311 312 314 315 315 316 318 319 318 322 320 317 317 314 315 318 315 312 316 312 314 316 319 318 323 328 328 327 326 326 325 324 321 317 313 310 308 307 305 302 300 297 297 297 297 297 296 292 290 289 292 294 291 292 289 291 288 288 287 290 287 286 287 287 286 284 284 283 284 283 284 285 284 284 283 284 285 284 284 284 283
301 303 305 308 311 311 313 314 313 314 315 314 316 314 313 311 308 308 308 309 308 309 311 312 313 314 314 316 318 316 319 324 325 325 324 325 323 320 315 311 309 307 306 303 299 298 297 298 297 297 296 295 291 290 290 293 292 298 293 286 285 286 288 286 285 285 285 284 284 284 285 284 284 284 284 284 283 284 283 284 284 284 283 284 284
299 301 301 306 307 308 309 310 310 310 312 312 313 314 315 315 312 313 312 308 312 310 312 315 313 312 315 316 316 317 318 319 320 322 323 322 322 321 318 314 310 308 306 304 302 299 298 298 298 298 296 297 294 290 289 292 292 292 292 295 293 293 289 284 287 287 285 284 285 284 284 284 283 283 283 283 284 284 285 283 284 284 283 283 283
297 297 299 302 304 306 307 309 311 309 309 309 310 312 313 314 314 316 317 315 315 314 310 310 313 312 310 313 315 315 316 318 318 318 319 320 321 321 319 315 312 309 306 306 303 300 299 298 298 298 297 297 296 292 291 290 292 290 291 291 291 290 288 285 286 283 282 284 283 283 284 285 284 283 283 283 283 283 283 283 283 283 283 282 281
294 296 298 300 303 305 305 307 306 306 305 307 308 311 313 312 312 313 313 314 314 314 309 308 304 304 307 309 310 313 313 314 316 315 316 317 317 319 319 317 314 312 308 306 305 303 301 299 298 298 298 298 296 295 293 292 290 290 291 290 290 289 287 289 287 290 286 283 283 284 285 284 283 283 283 283 283 282 282 283 282 282 282 282 281
294 295 297 298 300 302 302 302 303 303 302 305 307 308 310 311 311 311 310 309 309 306 300 299 302 298 302 302 307 310 311 311 312 313 313 314 313 316 317 315 314 312 307 308 307 305 302 300 298 297 297 297 296 296 295 292 292 292 290 290 291 290 288 289 289 290 287 286 286 283 282 283 283 283 282 283 284 284 283 282 282 282 283 283 282
292 295 296 297 298 299 300 301 301 300 300 302 304 306 306 306 308 307 308 308 301 298 297 298 298 296 301 301 304 306 308 308 308 309 310 310 311 311 313 314 314 312 308 308 307 305 303 301 299 298 298 297 297 296 296 295 293 294 292 292 290 289 288 287 288 287 287 288 289 284 284 281 280 282 284 284 284 284 283 281 281 282 281 282 281
291 293 294 295 295 298 297 300 299 298 299 302 303 304 305 304 307 306 307 307 303 302 298 297 295 295 299 299 300 303 304 306 306 307 308 308 309 309 310 311 312 310 308 309 308 307 304 302 301 299 298 298 298 297 296 296 294 293 293 292 292 291 290 288 287 287 288 286 286 286 284 283 283 283 284 284 284 283 281 281 281 281 281 281 280
Wind_Speed
4 5 4 7 10 10 10 12 11 12 12 12 13 13 12 13 12 12 12 12 13 13 14 13 13 14 13 13 15 16 18 18 17 16 16 14 16 17 16 17 19 20 18 17 17 18 19 19 20 20 18 18 19 19 19 18 19 19 20 20 21 21 20 20 19 18 18 22 23 23 23 22 23 22 21 23 23 21 18 19 16 14 12 18 24
7 4 3 3 13 12 12 12 12 12 12 12 12 12 12 12 12 12 13 12 13 13 13 13 13 13 13 14 15 16 18 18 17 16 16 16 16 17 17 18 18 18 18 18 18 19 20 19 19 20 19 19 19 19 19 20 19 19 20 21 21 20 20 19 19 18 18 17 21 21 22 23 22 22 23 24 22 21 18 18 19 12 11 21 23
6 4 3 3 7 10 11 12 13 12 12 12 12 12 12 11 12 13 13 13 13 13 13 14 13 13 14 14 16 16 17 18 18 17 17 16 17 18 18 19 18 18 18 17 18 19 19 20 21 20 20 20 19 19 19 20 20 21 20 20 20 19 19 19 18 17 17 16 17 19 18 23 23 23 23 22 21 20 17 19 19 18 14 23 20
8 4 2 3 5 7 9 13 13 12 12 12 12 12 11 11 12 13 13 13 13 14 13 13 14 13 14 16 16 17 18 18 17 17 17 16 17 18 18 18 18 17 18 18 20 20 20 21 21 20 20 20 20 20 20 19 20 20 20 20 19 19 19 18 17 16 15 15 13 10 6 7 13 21 21 21 22 22 20 22 23 23 23 22 24
7 4 2 2 4 8 10 12 13 13 12 12 12 12 11 11 12 12 13 13 13 13 14 13 12 12 15 15 15 17 19 19 18 17 17 18 17 18 18 17 17 17 18 20 19 20 20 21 21 20 20 20 20 20 19 20 20 20 20 19 19 19 18 17 16 16 15 15 13 8 6 7 9 19 20 22 22 21 21 22 23 23 23 25 25
7 4 2 2 3 7 10 11 13 13 13 12 12 11 11 11 12 12 12 12 13 13 13 12 12 13 14 16 15 16 18 18 18 17 16 16 18 18 18 17 17 18 18 19 19 19 19 19 18 19 19 18 19 19 19 19 20 20 20 20 19 19 18 17 17 16 14 13 11 7 8 8 6 11 22 22 22 20 23 23 23 22 23 25 25
9 4 3 3 3 5 9 11 13 13 13 13 12 11 11 11 12 12 12 12 12 13 12 12 12 12 16 16 16 17 18 18 18 17 16 16 17 18 17 16 16 17 17 18 18 19 19 19 18 20 20 19 19 19 19 19 19 19 19 20 20 19 18 17 16 16 13 8 7 7 8 10 9 8 22 22 23 22 24 23 23 23 24 23 23
6 4 4 3 3 6 7 9 12 13 13 12 11 11 11 11 11 12 12 12 12 12 12 11 12 13 16 15 15 16 17 18 18 16 16 16 17 17 17 16 17 16 16 18 18 19 18 19 18 18 19 19 19 19 19 19 19 19 19 20 20 19 18 18 16 15 14 8 8 7 7 7 7 8 21 22 23 23 21 24 23 24 24 23 19
7 6 4 3 3 6 7 8 12 13 13 12 12 11 11 11 11 12 12 12 12 11 12 12 12 14 14 14 16 17 17 18 17 16 15 14 16 16 17 16 16 16 15 16 16 17 17 17 18 18 18 19 18 18 19 19 19 19 19 20 19 19 18 18 18 14 9 8 8 7 8 7 8 10 20 24 25 24 22 19 20 25 24 21 22
7 5 4 3 3 5 8 8 12 13 13 13 12 12 11 11 11 12 12 11 11 11 11 11 11 12 14 15 15 16 17 18 16 16 15 15 15 16 17 16 16 15 16 18 18 17 18 18 19 19 19 18 18 18 19 18 18 18 19 19 19 19 18 16 16 13 8 8 8 8 9 12 8 11 20 25 26 25 23 21 17 18 18 23 26
6 5 4 2 3 4 7 10 10 10 13 12 12 12 11 11 11 12 12 11 11 11 11 11 11 12 13 14 14 15 16 18 17 17 15 14 16 16 15 15 15 15 15 16 17 18 18 18 18 18 18 18 18 18 18 18 18 18 18 19 19 18 17 16 13 7 8 8 8 7 11 16 9 10 22 25 25 25 22 22 21 20 24 27 26
7 6 4 3 3 5 6 8 8 11 11 11 12 11 11 10 11 11 11 11 11 11 11 10 11 12 13 13 13 15 17 16 17 16 16 14 15 15 15 16 14 14 15 15 15 16 16 17 17 18 17 18 17 18 18 18 18 18 18 19 18 17 16 15 7 8 8 8 9 9 8 9 8 15 25 25 24 23 25 24 23 24 25 25 26
7 6 4 3 2 4 4 6 7 9 9 11 11 11 10 10 10 11 11 11 11 11 11 10 9 11 12 14 14 15 15 16 16 15 15 15 14 15 15 15 15 14 15 15 15 15 16 16 17 17 17 17 16 16 17 17 17 17 17 18 18 16 16 10 6 7 7 7 7 8 8 7 10 21 21 24 24 25 26 26 24 25 26 25 25
7 7 5 3 2 4 4 6 7 8 8 8 10 10 10 10 10 10 11 11 11 11 10 10 9 12 12 13 14 15 15 15 16 16 14 14 14 14 15 15 14 14 13 14 14 15 16 16 16 16 16 16 17 16 17 17 18 17 16 15 14 13 10 7 7 6 7 7 7 7 6 7 10 20 23 25 24 24 24 25 24 25 27 26 25
7 7 6 4 3 2 5 6 6 7 7 8 8 9 10 10 10 10 10 10 11 11 11 10 10 11 11 12 13 12 14 15 16 14 14 13 13 14 14 15 14 14 13 14 14 14 15 15 15 16 17 16 17 18 18 17 16 16 15 14 13 12 9 6 6 6 7 7 6 8 8 6 18 22 23 24 23 23 23 24 24 25 25 25 25
5 8 5 4 3 3 3 4 6 6 7 7 8 8 9 9 9 10 10 10 10 11 11 11 10 10 11 10 10 13 13 14 14 13 13 12 12 13 13 14 14 14 14 14 14 15 15 16 16 16 16 17 17 17 17 16 16 15 15 14 13 12 10 7 6 7 7 7 7 7 7 10 22 23 23 23 23 23 23 23 23 24 25 24 24
5 5 6 5 4 3 4 3 4 5 7 8 7 7 8 8 8 9 9 9 10 10 11 11 11 10 10 10 9 9 11 12 12 13 12 12 12 11 12 14 14 13 14 14 14 15 16 16 16 16 16 17 16 16 16 16 15 15 14 14 13 11 10 9 7 6 6 6 5 5 6 7 18 22 22 23 23 23 24 24 23 24 23 24 24
5 6 6 5 4 3 3 3 3 3 4 6 7 7 7 8 8 8 8 8 9 9 9 10 10 9 9 9 9 10 10 12 12 13 12 12 9 8 12 13 13 14 14 14 15 15 16 16 16 16 16 16 16 16 16 15 15 14 14 13 13 11 10 10 7 6 6 6 6 5 5 13 23 22 23 21 21 22 23 22 22 20 21 21 22
5 6 5 6 5 4 4 3 3 3 4 4 3 5 8 8 8 8 8 8 8 8 8 8 8 9 10 9 10 10 9 10 9 11 10 8 7 9 10 12 13 13 14 14 15 15 15 15 16 16 16 16 16 16 15 15 14 14 14 12 11 12 12 7 6 6 6 6 6 7 9 17 17 20 21 21 21 21 21 21 22 22 22 22 22
5 6 6 5 5 5 4 4 3 3 3 4 3 3 6 8 8 8 8 9 8 8 8 8 9 9 10 11 10 8 9 8 11 9 10 8 7 6 7 9 13 13 14 14 15 15 15 15 15 16 16 16 16 16 15 15 14 13 13 12 11 12 8 5 6 6 6 6 5 5 12 20 22 21 21 22 22 22 21 20 19 20 20 21 21
4 6 6 5 5 6 6 5 4 4 4 4 4 4 4 7 7 8 9 9 9 8 9 9 9 9 9 10 9 6 5 5 6 5 8 5 7 7 8 10 12 11 13 14 14 14 14 14 15 15 16 16 15 15 14 14 13 13 13 11 12 8 6 6 6 6 6 6 8 8 14 16 22 23 20 20 21 19 17 18 21 20 19 19 20
6 5 6 6 5 6 5 6 4 5 4 4 3 4 4 5 4 4 4 6 7 8 7 6 6 5 8 7 5 5 5 4 5 6 5 5 6 9 9 10 11 9 11 13 13 13 13 15 15 16 15 14 12 8 8 10 13 12 10 12 9 6 6 6 6 6 5 5 4 7 12 21 21 20 22 20 19 20 21 20 18 18 19 19 19
7 6 6 7 5 6 6 6 6 5 5 4 4 4 5 4 4 4 4 5 5 6 5 5 4 5 4 5 5 5 4 4 4 5 5 8 7 9 9 11 11 9 9 12 13 13 15 15 15 15 14 12 8 6 6 6 6 9 9 8 6 6 5 6 6 5 5 5 7 12 12 18 21 21 21 20 20 20 19 19 19 19 18 18 18
8 8 7 6 6 6 7 6 7 5 5 4 4 4 4 4 5 4 4 4 4 4 4 4 4 4 5 5 5 4 4 5 6 8 7 5 6 9 11 10 12 10 11 8 10 14 14 15 14 13 9 5 6 6 6 5 5 5 6 6 6 5 6 5 5 5 6 5 5 12 18 19 20 20 16 15 19 18 18 17 18 18 18 18 17
5 5 6 7 7 7 7 6 6 6 6 5 5 5 5 4 5 4 5 4 4 4 4 4 4 4 5 4 4 4 4 5 5 5 5 5 5 5 5 5 6 6 8 6 5 5 6 6 6 7 5 6 6 5 5 6 5 5 6 5 6 5 5 5 4 5 4 5 5 14 16 19 19 20 18 19 17 18 17 18 18 17 16 16 17
5 6 8 7 8 7 7 6 6 6 7 6 6 6 6 5 5 5 5 5 5 4 4 4 5 4 4 5 5 5 5 5 4 5 5 5 5 5 5 5 5 5 5 6 5 5 5 5 6 6 5 5 5 4 4 5 6 5 5 5 6 5 5 5 4 4 4 2 8 13 14 18 19 18 17 16 17 17 17 18 17 16 16 16 16
7 8 7 6 7 7 7 7 7 6 7 6 5 5 6 5 5 4 6 6 5 5 4 4 5 4 5 5 6 5 5 5 5 5 5 5 5 5 5 4 5 5 3 6 5 5 5 5 5 5 5 6 6 4 4 4 4 6 5 6 6 5 5 5 4 4 3 3 8 16 16 17 15 15 20 18 17 17 15 14 15 16 15 15 16
6 7 7 7 7 9 8 8 7 7 6 6 6 5 6 5 6 5 6 6 6 5 5 5 5 5 5 5 5 6 7 6 5 5 5 4 5 5 5 5 5 5 3 4 6 5 5 5 5 5 6 5 6 5 5 4 4 4 6 5 5 5 5 5 4 3 2 2 3 11 16 16 15 17 17 18 16 15 15 15 16 15 15 15 15
9 9 8 8 9 9 9 10 9 8 6 6 7 7 6 6 5 6 6 6 6 6 5 4 4 4 4 5 5 6 5 6 6 5 4 5 5 5 5 5 5 5 4 4 5 5 5 5 5 5 5 5 5 5 5 4 4 4 4 5 5 5 5 5 4 3 3 2 2 9 14 15 14 16 16 18 18 18 17 15 15 15 16 15 14
11 9 8 8 7 9 10 10 10 9 8 7 6 7 7 7 6 6 7 6 6 7 6 5 5 5 5 4 5 6 7 7 6 5 6 5 5 5 5 5 5 5 5 5 3 5 6 5 5 5 6 5 5 4 5 5 5 4 4 4 4 4 4 5 4 4 3 3 3 3 11 12 14 15 18 17 17 17 16 14 15 15 15 14 14
9 11 10 8 7 8 10 10 10 9 8 9 7 7 8 8 7 5 6 6 6 6 6 6 5 5 5 5 4 4 5 5 6 6 5 5 5 5 5 5 5 5 5 5 4 5 5 5 5 6 5 5 5 3 4 6 5 5 3 4 4 4 4 4 4 4 4 4 4 3 4 9 10 9 13 16 16 16 14 14 16 15 13 13 13
12 13 10 7 7 9 10 10 10 10 10 10 8 8 9 9 7 6 7 7 7 5 6 6 6 6 5 5 5 5 5 5 6 6 6 6 6 5 5 6 5 5 5 6 6 5 5 5 4 5 4 5 5 4 3 5 5 4 4 4 3 4 4 4 4 4 3 3 3 4 5 5 6 7 10 13 15 14 14 13 13 11 14 13 13
11 9 8 8 10 8 9 10 10 10 11 11 9 8 8 9 8 7 6 7 8 6 6 7 7 6 6 6 5 5 5 6 6 7 7 7 7 6 6 6 5 5 5 6 7 6 6 6 6 5 5 5 6 5 4 4 5 4 4 4 3 4 4 4 4 4 4 3 4 4 4 4 4 8 6 10 10 12 13 14 13 10 12 12 11
9 7 7 11 9 6 6 7 10 10 11 9 9 8 8 7 8 7 7 7 7 8 6 7 8 7 7 7 7 6 6 5 6 6 6 6 7 7 7 6 6 7 6 7 7 6 6 7 7 6 5 5 5 5 5 5 4 4 4 3 3 3 3 4 3 3 3 4 3 4 4 4 4 4 5 7 4 9 10 11 11 11 11 10 10
6 7 12 12 9 9 6 6 8 11 10 10 8 7 8 9 8 10 8 7 6 7 9 7 8 8 8 8 9 8 8 7 7 7 7 6 7 7 6 6 6 6 7 8 8 7 7 8 7 7 5 5 5 4 5 4 5 5 4 3 3 3 3 3 3 4 4 3 3 3 3 3 4 4 4 3 7 3 10 9 11 11 9 10 10
11 11 9 8 11 11 10 10 7 9 11 11 12 9 6 7 6 4 8 11 9 7 5 5 7 9 9 9 10 10 9 9 8 8 7 7 7 7 8 7 7 6 6 6 7 9 9 8 7 9 9 6 6 4 3 4 3 4 3 3 3 3 3 3 3 3 3 2 4 4 4 3 3 4 3 4 4 6 5 8 10 11 11 11 10
10 9 10 9 10 11 11 13 14 12 10 9 9 10 9 7 8 8 5 6 7 7 7 6 4 6 8 8 9 10 12 10 9 8 8 9 8 8 7 9 9 8 7 6 5 4 8 9 8 8 9 8 8 7 5 4 6 6 4 4 3 3 3 3 2 2 2 5 4 4 4 4 3 2 5 5 4 4 9 11 11 10 4 9 9
9 10 10 11 12 10 11 12 13 13 12 10 9 9 7 6 6 9 9 7 9 9 10 10 9 6 6 9 11 10 9 11 12 10 7 6 7 7 6 6 6 6 6 6 5 3 3 5 8 6 7 9 8 9 8 6 5 4 4 5 5 5 4 4 4 3 2 3 3 3 3 3 3 4 4 5 4 4 4 7 9 10 11 10 5
9 10 9 9 8 8 9 11 11 11 12 12 10 8 7 6 4 5 6 6 5 5 4 7 8 9 9 8 9 9 11 9 9 12 11 9 9 9 9 11 10 9 9 7 6 6 5 5 8 7 3 4 8 8 8 7 6 5 5 5 4 5 4 4 4 4 4 5 3 2 1 3 2 3 5 5 4 4 4 4 4 5 6 10 12
7 7 9 9 10 9 8 9 10 11 9 9 8 8 7 8 9 5 7 9 8 4 4 5 5 7 8 9 8 9 9 10 10 8 8 8 7 6 7 9 10 8 9 9 9 9 10 9 6 9 8 6 5 6 7 8 7 6 5 4 4 4 4 3 3 3 3 3 3 2 2 1 2 2 4 4 4 4 4 3 4 5 4 7 10
8 9 10 11 12 13 11 13 11 10 9 9 9 10 10 9 7 10 10 8 9 9 7 5 5 5 5 7 8 8 11 11 10 9 10 9 9 6 5 3 6 9 10 11 11 10 8 7 6 4 11 9 5 7 7 8 10 5 4 3 3 3 3 3 3 2 2 2 3 2 2 1 2 2 2 2 3 3 3 4 4 4 4 4 4
10 10 13 15 13 11 12 12 7 9 11 11 10 10 10 10 10 11 9 7 6 7 9 8 8 6 6 6 6 5 5 10 10 9 9 8 7 9 9 10 10 10 9 7 7 7 8 8 8 6 3 8 7 10 10 10 2 7 7 3 2 2 2 1 1 1 1 1 3 3 3 1 0 0 1 2 3 3 3 4 3 4 4 4 4
8 10 11 7 7 9 11 9 9 10 11 11 10 10 9 8 9 7 8 5 4 6 7 5 5 6 8 9 8 7 7 7 9 10 10 9 10 9 10 10 10 9 8 6 8 9 9 11 12 11 9 3 3 7 12 11 9 6 4 6 2 1 4 2 2 4 3 2 1 2 2 2 2 2 2 1 2 3 3 3 4 4 4 4 4
6 6 7 10 8 9 10 10 10 9 9 10 10 8 6 4 2 1 2 4 4 3 3 1 3 4 6 4 5 9 9 6 6 9 10 11 11 10 9 10 10 10 10 9 9 11 10 9 10 9 10 9 6 9 10 7 7 14 5 5 3 1 2 11 9 3 2 2 3 4 3 3 2 2 2 1 1 1 3 3 5 5 4 4 3
8 8 8 9 8 11 9 8 7 7 6 6 8 5 5 4 4 4 4 3 3 3 4 5 5 5 3 5 6 2 4 8 8 7 8 11 12 13 12 12 12 12 11 11 11 13 14 14 16 14 14 13 10 5 10 10 8 8 10 7 3 0 9 1 5 6 3 4 5 5 4 4 4 2 2 2 2 1 1 3 3 4 5 4 4
7 6 4 6 6 6 5 6 5 6 7 7 8 7 8 8 7 7 6 3 6 6 8 10 8 8 10 6 5 6 6 6 5 6 7 7 7 6 7 9 13 13 14 14 13 10 11 11 12 12 13 10 11 10 10 10 8 8 5 1 6 9 7 5 5 7 2 6 2 4 5 4 3 4 3 4 4 3 2 3 1 2 3 4 4
6 3 4 5 5 5 5 6 7 5 5 6 7 7 7 7 10 11 10 10 10 8 6 5 7 7 4 6 7 6 7 7 7 6 6 5 5 7 9 9 6 4 6 7 9 12 13 13 11 11 12 10 8 11 13 12 6 9 8 5 2 2 7 9 8 4 3 3 5 5 5 4 4 4 5 5 4 4 4 2 4 3 2 2 3
4 2 3 3 5 5 4 5 4 4 4 5 7 8 9 8 8 9 9 9 10 9 8 7 4 4 6 6 5 5 6 5 6 6 6 6 7 6 6 6 9 13 13 13 14 13 11 11 13 14 10 10 12 13 11 10 15 13 11 9 3 1 4 1 4 11 5 6 8 3 3 6 5 7 6 7 6 5 6 5 4 4 4 4 4
3 2 3 3 3 3 3 3 4 4 4 6 7 7 7 8 9 8 8 6 6 5 3 2 4 4 5 4 5 5 5 5 5 4 4 4 4 5 5 5 6 6 6 7 9 10 14 14 14 12 13 12 12 11 9 12 12 10 9 10 7 4 2 1 1 1 5 6 7 9 10 3 3 8 7 6 5 5 6 5 4 4 5 5 5
1 0 0 1 1 2 3 4 4 4 4 5 6 6 6 6 7 7 8 7 5 3 3 4 4 4 5 5 4 4 5 4 4 4 4 3 4 3 4 6 7 8 8 9 8 7 9 11 13 14 14 14 11 11 12 11 12 10 10 9 10 3 1 2 4 6 4 5 8 8 10 12 12 12 6 8 7 6 5 5 6 5 5 5 4
2 2 3 2 3 3 4 4 4 4 5 6 6 8 6 6 7 8 9 8 7 6 4 4 3 3 5 5 6 6 5 5 4 4 5 4 4 4 4 3 3 5 8 10 12 12 11 11 11 12 14 15 12 12 10 9 9 10 11 11 13 13 14 14 14 10 10 8 5 7 7 11 14 7 8 8 7 7 6 6 6 6 6 6 5
Wind_Direction
194 174 187 170 171 165 153 128 119 117 114 110 105 101 94 90 88 87 84 80 82 83 89 98 97 92 96 98 82 88 91 86 84 82 81 79 82 85 88 86 80 81 83 79 78 80 79 77 74 73 73 76 75 74 72 73 72 69 67 60 59 59 57 54 52 45 48 65 67 65 65 69 68 69 69 70 70 67 64 63 62 62 65 68 70
169 191 179 186 162 158 139 131 128 123 121 114 107 102 96 93 93 90 90 88 87 88 94 99 100 99 100 89 90 92 90 89 87 84 84 84 83 87 83 81 81 80 80 79 79 79 79 77 75 73 75 77 77 76 74 73 73 73 67 61 60 58 56 55 53 50 51 52 63 67 70 70 72 72 72 72 72 71 69 70 69 69 70 71 71
136 150 192 196 163 142 138 135 131 128 121 113 106 102 101 101 100 99 97 95 95 94 94 93 94 93 94 101 99 96 91 89 88 85 83 88 90 89 88 85 83 80 80 85 86 84 81 76 73 74 74 74 75 75 74 74 73 71 66 62 61 58 57 53 50 49 49 53 59 62 60 68 71 71 70 70 72 72 74 76 76 76 77 77 77
129 145 164 194 140 133 140 137 133 126 119 112 110 106 106 106 100 99 97 94 94 97 95 93 94 100 94 91 95 94 94 91 90 90 89 88 91 89 85 84 85 83 82 82 85 85 82 80 79 79 79 78 76 74 75 75 74 74 69 63 60 57 55 53 49 47 45 46 46 44 52 59 64 69 71 73 72 69 64 67 70 72 74 73 74
125 134 144 135 123 138 143 135 133 126 122 119 114 112 111 108 105 102 102 100 98 95 96 96 95 92 86 95 98 103 102 99 95 94 95 95 93 91 88 83 83 84 84 86 88 84 80 82 82 80 78 75 72 75 77 77 77 77 73 64 61 58 57 55 51 48 44 41 39 40 38 47 72 75 78 77 75 73 72 72 72 72 71 74 75
132 126 119 100 114 141 145 139 133 129 125 118 116 116 114 111 107 104 101 98 94 94 97 97 92 94 95 96 102 102 98 100 96 94 95 97 98 92 89 90 88 85 84 84 84 87 88 86 86 84 82 80 80 80 79 80 80 78 73 67 64 64 61 59 58 54 51 47 46 52 48 42 52 79 82 81 80 77 77 76 76 72 73 71 71
135 121 117 114 122 144 150 140 135 131 127 123 120 119 116 110 105 103 100 99 96 95 96 100 99 95 92 98 104 102 100 99 97 97 99 99 96 92 89 88 88 84 86 88 87 87 87 83 80 83 83 84 84 82 82 83 79 76 72 68 66 65 63 58 55 54 52 51 53 51 58 63 65 71 81 80 78 76 79 78 76 74 71 70 71
126 125 122 122 137 142 151 140 137 133 129 124 124 121 117 110 105 103 101 101 100 98 100 99 96 100 101 97 99 99 97 97 97 100 101 101 99 94 93 90 86 85 85 86 87 87 85 82 80 80 80 80 82 84 83 81 77 74 69 68 68 64 61 60 53 51 52 54 51 51 55 64 73 75 76 77 75 72 69 72 72 70 68 67 65
142 133 124 133 147 146 150 147 137 137 133 130 130 127 119 114 108 106 106 105 106 106 104 100 100 92 90 100 104 101 99 98 97 100 102 101 100 99 95 88 88 91 94 91 92 90 88 88 83 82 85 86 86 87 85 80 76 75 70 70 68 66 61 62 65 53 53 54 55 57 56 59 70 75 82 79 75 71 67 65 66 70 71 71 70
144 136 130 139 156 159 158 153 143 142 137 137 136 131 125 120 116 112 111 110 109 111 108 109 106 105 103 98 99 97 101 101 99 99 102 106 105 100 96 94 92 91 90 96 96 94 90 90 90 87 87 87 87 85 82 81 77 72 73 74 72 70 69 64 64 60 55 52 56 61 67 69 70 78 81 80 78 76 73 72 72 74 76 72 71
143 146 129 144 158 179 164 156 150 145 139 140 139 132 128 123 120 117 116 115 113 112 111 102 98 104 106 101 97 98 102 103 105 103 103 107 105 104 100 95 94 92 94 90 91 91 91 88 87 90 90 86 83 82 81 80 79 81 80 78 75 72 67 67 61 50 53 56 55 55 63 65 60 80 82 80 80 78 76 76 77 76 74 70 69
148 153 136 144 171 182 177 156 151 146 142 146 137 133 128 126 124 121 119 118 118 114 109 103 103 107 108 106 102 102 103 102 104 106 106 107 107 105 99 96 97 97 94 94 93 92 91 91 93 94 91 88 87 85 84 81 82 85 84 82 76 72 70 68 53 58 57 56 59 63 66 72 78 79 82 82 78 78 77 76 74 72 71 71 68
149 160 145 151 160 186 179 160 149 147 149 146 139 134 132 130 126 123 121 120 118 115 111 107 104 103 105 106 105 102 106 105 105 107 109 110 110 105 103 98 93 96 98 97 97 97 97 96 95 96 95 91 87 86 86 86 85 83 83 83 83 77 77 53 60 58 58 59 62 61 64 70 81 83 82 83 81 75 74 72 72 71 70 70 71
151 159 158 152 144 181 175 159 153 149 153 144 141 136 135 131 129 124 123 121 119 120 115 109 106 109 108 109 109 108 105 107 107 107 111 112 114 115 110 104 100 98 99 97 96 97 97 97 96 96 92 90 90 91 92 90 88 84 78 75 71 70 57 48 50 58 55 56 61 61 61 68 84 83 81 77 77 76 76 74 70 68 69 69 71
153 155 159 149 148 163 166 159 160 157 155 147 142 145 141 137 133 130 125 124 122 121 121 112 107 111 114 113 111 113 110 107 106 108 113 117 118 118 114 107 103 100 99 100 101 99 99 100 99 95 95 97 95 94 92 86 81 77 73 67 62 56 52 58 52 49 57 55 60 69 72 78 84 81 79 79 76 75 76 76 76 76 76 75 74
151 153 148 149 147 148 157 161 162 159 157 149 147 148 147 141 137 134 131 127 126 124 124 121 114 115 121 118 117 119 116 115 113 113 117 121 123 120 120 112 111 109 108 108 107 104 103 102 102 102 101 98 93 90 85 82 79 75 71 64 57 55 52 63 60 57 63 67 68 74 73 76 79 81 81 80 82 82 80 79 78 77 77 76 75
148 147 148 149 148 146 148 155 160 162 155 152 150 149 150 144 141 138 135 132 131 130 128 128 122 117 119 122 114 109 123 118 114 118 121 122 124 122 118 115 111 114 114 113 112 108 106 105 106 106 103 95 90 86 84 81 77 73 69 65 60 55 57 63 67 66 68 70 71 77 84 91 87 82 81 81 81 80 80 80 80 78 77 76 75
156 157 158 153 151 150 149 149 146 159 155 152 156 155 152 148 141 136 134 133 135 133 131 130 127 113 95 90 93 94 101 114 118 120 125 125 110 106 113 119 114 117 117 113 112 109 107 108 107 104 98 90 87 86 84 81 78 74 71 66 61 55 56 61 69 66 64 63 68 74 92 86 83 83 83 83 84 85 82 82 81 80 78 77 78
164 167 160 159 159 152 152 147 152 159 158 158 161 164 157 150 141 139 135 134 132 130 131 119 110 110 106 98 91 89 87 94 105 107 107 104 106 111 118 119 121 120 116 118 116 115 115 112 106 97 90 88 86 84 82 80 79 77 74 69 60 62 58 59 62 66 66 64 72 84 95 101 95 89 87 90 86 80 80 81 80 80 82 82 80
172 170 169 166 167 148 124 157 155 162 161 159 165 162 161 152 146 140 140 136 133 129 121 115 108 102 102 101 97 91 88 88 94 104 114 112 101 108 117 118 121 127 123 123 122 120 119 115 110 99 93 89 84 80 80 79 79 76 73 70 66 62 58 61 63 60 63 68 64 70 83 84 88 93 93 88 87 84 83 85 86 83 82 82 81
147 179 176 172 171 165 167 162 165 163 164 163 162 163 165 152 145 144 142 139 135 128 119 111 105 101 103 104 99 94 96 94 90 99 102 108 106 108 115 114 127 131 128 126 126 124 119 115 110 96 89 84 77 70 69 74 73 74 73 66 68 63 60 63 61 61 63 73 83 97 112 100 94 92 90 86 85 91 96 88 83 82 83 82 80
171 167 178 183 173 173 167 171 163 173 167 166 166 166 157 155 146 146 137 134 129 124 122 123 114 111 109 104 106 107 101 98 100 106 109 111 108 107 111 118 120 111 125 127 125 118 117 115 101 91 87 80 72 69 61 58 60 67 65 71 65 62 60 67 67 69 72 68 86 94 90 98 98 94 92 92 92 86 82 84 86 86 84 82 82
186 179 175 186 188 182 180 179 183 173 168 172 170 163 159 156 150 144 132 129 133 129 128 125 125 124 117 112 110 114 111 102 109 116 119 114 111 105 98 101 107 110 121 121 122 123 118 106 92 89 83 76 71 72 67 63 55 51 62 64 70 61 64 68 74 77 78 85 88 101 92 92 96 98 97 95 93 90 87 88 90 90 89 88 86
187 188 180 183 185 189 179 184 184 166 158 161 178 168 166 159 157 151 137 131 135 135 131 131 133 131 126 122 119 116 112 109 107 111 109 103 105 100 83 87 98 95 92 95 103 113 100 86 87 83 76 71 75 71 77 70 63 61 65 67 68 62 62 61 79 87 100 104 124 107 101 99 101 100 98 90 91 95 94 91 87 84 85 87 88
187 175 187 189 190 187 187 190 190 182 174 167 182 172 170 163 162 157 143 144 141 139 140 139 142 136 130 127 126 121 116 113 113 106 102 105 101 94 84 86 89 90 91 90 84 76 73 82 74 73 76 86 87 77 87 87 75 73 69 68 75 64 56 48 59 84 95 113 108 106 106 105 103 100 100 98 98 95 98 98 95 90 91 92 88
173 185 195 193 192 188 188 189 192 193 187 178 187 180 174 178 169 166 151 150 149 150 150 150 149 145 140 133 125 120 121 121 121 117 109 111 107 93 97 104 99 104 107 105 92 93 84 86 87 84 73 70 72 80 77 94 101 86 86 76 76 72 61 35 24 41 24 70 106 111 112 109 109 109 101 101 105 105 104 100 102 101 99 91 90
192 202 191 197 191 189 189 187 198 193 193 188 189 177 189 182 174 169 156 156 153 157 167 162 161 154 149 147 140 138 135 136 131 132 129 123 115 103 105 105 110 109 110 113 102 95 100 94 90 86 81 82 73 59 64 70 86 101 91 86 81 76 80 69 20 15 19 50 106 110 112 113 116 112 116 111 103 102 102 102 101 99 97 96 94
203 202 195 195 191 193 190 189 198 198 193 190 184 159 190 187 178 168 174 160 160 174 174 175 160 162 160 159 147 148 148 146 145 144 143 131 126 113 109 104 106 105 95 106 113 102 98 98 100 93 93 88 97 83 71 55 55 73 96 90 91 89 77 72 64 11 20 27 127 123 119 120 121 115 115 114 117 111 112 112 111 105 101 100 99
211 204 196 195 197 192 189 194 196 199 196 190 195 191 196 193 181 180 184 162 175 178 170 160 170 166 165 161 154 149 149 148 153 153 142 142 128 124 123 119 117 116 111 97 112 117 106 109 107 106 100 100 93 91 89 69 54 48 70 89 92 92 89 77 66 44 19 7 64 126 128 129 125 124 124 124 122 120 117 113 110 108 107 106 109
211 209 204 200 189 188 190 195 196 197 196 195 197 191 196 197 195 187 184 171 183 177 159 169 173 169 173 174 171 161 162 160 155 150 153 151 140 126 126 132 130 134 125 121 114 116 121 111 108 108 107 98 94 91 95 88 68 57 53 75 68 67 68 74 70 49 15 23 34 87 120 119 127 131 127 128 126 123 119 119 116 115 115 118 112
207 214 211 207 193 187 194 192 197 195 195 200 197 194 192 203 201 188 182 184 179 170 170 170 168 182 178 173 173 168 156 156 154 155 152 148 147 141 138 135 133 141 136 126 115 120 115 117 125 125 119 112 101 92 98 98 82 66 48 70 71 68 65 55 48 44 39 13 15 42 74 123 129 121 134 132 127 127 129 127 127 123 124 120 116
210 216 210 198 197 201 199 195 197 195 197 202 198 194 191 198 202 193 189 182 181 174 174 174 178 180 172 177 176 168 161 158 157 157 155 154 156 154 149 148 152 148 143 137 127 121 119 110 101 104 107 108 103 83 67 97 87 68 55 56 50 75 68 74 69 56 44 23 21 32 45 29 55 118 128 125 133 135 133 127 124 127 128 124 123
220 216 209 205 211 203 203 196 196 196 198 201 200 197 187 189 198 203 193 182 188 184 178 182 180 175 175 177 179 172 169 164 167 165 163 165 163 161 163 164 157 151 145 141 130 128 121 117 106 109 103 101 99 90 84 79 86 71 72 63 61 75 72 68 70 60 64 46 26 30 37 33 35 18 53 126 132 137 134 133 133 134 126 133 124
216 211 210 217 210 209 203 202 200 203 198 200 201 201 190 185 190 200 194 188 191 196 189 178 180 180 175 182 182 179 176 173 167 171 170 169 171 172 172 168 164 159 151 151 146 146 138 134 134 124 120 120 114 111 108 94 71 71 64 52 55 65 64 54 47 58 69 75 57 55 33 40 37 29 12 24 104 138 133 133 139 136 136 135 128
212 209 213 217 207 214 201 211 203 209 203 206 208 208 194 179 191 191 193 196 192 196 193 183 182 183 179 182 185 184 186 181 180 176 179 174 174 176 175 180 165 161 163 168 155 152 146 146 148 132 126 113 112 101 103 93 94 79 56 34 28 2 11 33 9 30 25 34 87 75 73 74 49 57 27 31 11 36 138 145 148 141 139 137 139
212 211 214 207 215 213 208 216 207 212 211 210 213 219 212 194 171 210 199 189 192 199 200 204 184 185 185 183 186 186 188 187 185 183 179 179 179 184 182 165 166 165 170 172 166 162 161 153 158 147 136 134 125 102 88 99 80 72 59 44 34 3 23 30 13 9 359 354 24 22 35 32 68 67 74 53 33 14 78 142 143 150 149 148 151
212 207 206 202 214 211 208 211 215 216 214 209 208 210 213 218 206 198 206 195 193 203 201 186 196 189 187 189 190 189 185 185 189 189 187 182 180 188 187 175 170 172 173 175 185 180 161 156 158 163 150 144 140 127 113 103 104 93 70 55 29 16 20 14 22 11 8 23 24 21 360 8 16 45 84 64 50 23 44 48 54 49 91 161 148
215 212 208 203 210 206 206 210 213 214 217 217 208 206 196 192 202 200 196 214 214 203 202 195 194 188 188 194 186 190 201 190 179 181 193 197 191 178 160 156 163 161 161 168 171 150 170 161 151 156 152 144 146 144 137 121 108 94 63 50 33 17 6 6 355 346 10 47 54 47 9 337 354 337 30 72 60 56 42 41 49 53 44 27 150
214 212 209 211 207 206 206 211 211 208 211 212 216 215 211 211 210 196 190 202 216 205 200 214 205 193 184 191 199 193 187 196 201 184 183 187 191 186 175 170 172 176 168 170 166 162 172 177 161 144 121 122 145 147 136 128 109 79 52 46 47 26 7 11 11 2 358 353 7 39 11 11 357 332 22 58 69 67 61 42 44 52 31 29 35
211 206 209 207 208 208 206 210 210 206 204 206 202 206 205 208 213 220 224 217 216 208 201 214 202 205 201 179 184 195 193 193 190 194 191 175 183 192 192 174 170 171 172 173 174 177 180 174 174 151 136 112 104 125 127 122 99 75 64 47 39 29 23 12 22 24 349 349 333 329 12 341 15 345 12 53 78 73 74 69 70 65 40 33 35
205 202 204 208 206 205 195 210 205 195 194 196 196 194 198 204 211 210 216 211 211 214 218 215 209 205 190 191 185 191 188 190 194 189 191 180 174 165 164 194 175 170 181 191 185 176 170 159 146 165 151 143 136 142 141 128 121 81 54 47 38 30 24 360 359 14 25 338 327 327 327 1 356 352 360 41 79 79 90 90 91 80 76 55 34
219 201 205 208 205 201 202 211 190 195 199 198 196 197 199 201 198 207 208 202 197 199 209 209 213 203 196 192 191 205 182 184 186 189 190 189 180 169 177 184 187 194 192 183 171 164 161 157 153 152 207 163 159 169 162 136 141 169 154 174 348 278 206 255 264 328 110 46 332 327 318 324 346 316 327 77 82 88 93 110 88 92 82 73 59
215 203 216 207 203 203 210 205 197 195 201 197 192 201 201 203 201 208 199 203 213 203 205 199 197 206 208 201 198 203 198 184 182 185 190 192 190 182 184 181 189 181 170 170 172 173 177 171 171 169 163 186 153 185 181 186 144 120 103 92 244 234 255 261 210 217 210 177 211 278 302 313 318 326 317 94 123 116 109 102 103 94 87 89 70
231 216 209 208 205 208 209 202 201 198 196 197 199 202 194 185 186 146 191 177 186 178 181 134 205 218 226 230 220 196 194 202 182 188 192 194 192 190 179 176 183 182 180 177 181 188 179 173 173 176 163 161 184 198 210 201 155 137 159 181 139 121 324 240 213 229 174 229 237 229 227 254 295 299 305 295 277 274 132 119 125 118 121 113 109
223 219 207 206 204 210 210 203 198 197 197 189 191 166 136 127 113 69 66 75 47 105 174 222 213 215 235 213 213 220 219 195 185 195 206 200 192 188 183 185 184 187 187 190 191 190 188 187 185 180 183 178 176 188 207 214 207 205 135 124 97 193 223 2 143 248 148 240 227 214 216 224 224 260 269 272 309 294 263 143 139 139 139 130 124
235 230 212 216 210 211 195 193 190 187 192 187 177 165 174 168 161 164 169 179 199 178 201 211 204 206 213 195 196 199 200 215 213 200 201 211 208 206 204 193 189 185 187 190 190 185 188 187 189 186 190 196 183 173 194 222 221 235 243 321 162 168 167 178 128 249 85 216 246 222 230 240 227 238 245 245 233 236 275 190 101 176 129 135 124
246 221 217 215 214 207 194 191 192 187 178 172 169 168 175 181 187 195 198 200 206 215 213 213 203 214 193 193 204 198 202 203 211 208 211 212 210 194 183 181 193 213 207 193 184 186 187 191 187 194 198 189 170 189 192 197 200 251 239 237 34 49 135 135 203 80 266 215 219 226 242 217 236 245 237 237 230 249 248 256 192 190 191 143 132
268 244 228 218 209 208 187 190 181 170 167 160 170 180 184 187 194 203 206 209 210 215 199 208 202 174 191 205 198 205 204 209 208 208 211 213 213 208 203 201 193 194 187 196 197 195 190 191 192 198 190 190 191 194 189 182 187 213 211 219 188 70 179 114 151 181 161 176 221 193 245 217 222 237 222 225 217 228 243 232 214 209 196 190 175
281 241 232 223 217 192 172 155 163 157 165 166 174 189 192 189 196 199 211 222 217 223 182 162 177 170 196 204 206 212 210 212 216 212 207 214 221 230 215 200 194 200 203 214 208 197 195 189 189 190 196 199 200 204 185 194 202 211 176 219 213 191 179 219 35 155 166 182 241 193 215 152 243 243 224 224 232 217 221 220 229 223 212 206 193
320 317 20 116 129 124 138 142 162 162 161 169 178 188 195 187 194 202 211 218 215 208 150 176 182 169 201 203 210 216 218 217 214 213 207 198 204 224 241 213 198 187 182 199 203 207 206 200 195 197 199 203 204 205 205 198 201 204 193 194 192 141 113 234 238 202 247 215 216 198 201 188 211 228 185 216 213 222 218 215 214 221 226 217 208
33 82 77 98 115 130 136 154 174 159 165 178 178 190 193 190 201 203 209 213 208 196 189 198 175 175 207 212 206 215 212 219 213 218 208 197 207 206 211 235 225 198 193 194 197 197 195 200 204 203 200 199 202 207 221 224 213 209 195 190 196 193 197 201 205 198 192 196 223 233 201 204 213 203 218 193 200 216 222 225 218 218 227 219 209